Time,TemperatureF,DewpointF,PressureIn,WindDirection,WindDirectionDegrees,WindSpeedMPH,WindSpeedGustMPH,Humidity,HourlyPrecipIn,Conditions,Clouds,dailyrainin,SoftwareType,DateUTC
2013-07-12 00:00:00,72.5,54.4,29.39,WNW,299,0.0,2.0,53,0.00,CLR,CLR,0.00,WeatherDisplay:10.37,2013-07-12 07:00:00,
2013-07-12 00:05:00,71.2,53.7,29.39,WNW,285,1.0,2.0,54,0.00,CLR,CLR,0.00,WeatherDisplay:10.37,2013-07-12 07:05:00,
2013-07-12 00:10:00,72.0,54.9,29.39,WSW,247,1.0,3.0,55,0.00,CLR,CLR,0.00,WeatherDisplay:10.37,2013-07-12 07:10:00,
2013-07-12 00:15:00,72.7,55.6,29.39,WNW,299,0.0,1.0,55,0.00,CLR,CLR,0.00,WeatherDisplay:10.37,2013-07-12 07:15:00,
2013-07-12 00:20:00,72.5,54.4,29.39,NNE,22,0.0,2.0,53,0.00,CLR,CLR,0.00,WeatherDisplay:10.37,2013-07-12 07:20:00,
2013-07-12 00:25:00,71.4,53.9,29.39,SSE,158,0.0,1.0,54,0.00,CLR,CLR,0.00,WeatherDisplay:10.37,2013-07-12 07:25:00,
2013-07-12 00:30:00,71.6,54.1,29.39,SW,225,1.0,2.0,54,0.00,CLR,CLR,0.00,WeatherDisplay:10.37,2013-07-12 07:30:00,
2013-07-12 00:32:00,72.7,58.0,29.39,East,90,3.5,0.0,60,0.00,CLR,,0.00,WeatherDisplay:10.37,2013-07-12 07:32:00,
2013-07-12 00:35:00,71.6,54.1,29.39,SW,225,1.0,2.0,54,0.00,CLR,CLR,0.00,WeatherDisplay:10.37,2013-07-12 07:35:00,
2013-07-12 00:40:00,71.6,71.6,29.39,NW,325,0.0,0.0,100,0.00,CLR,CLR,0.00,WeatherDisplay:10.37,2013-07-12 07:40:00,
2013-07-12 00:45:00,70.9,54.4,29.39,NW,315,0.0,2.0,56,0.00,CLR,CLR,0.00,WeatherDisplay:10.37,2013-07-12 07:45:00,
2013-07-12 00:50:00,70.5,54.5,29.39,WNW,292,0.0,2.0,57,0.00,CLR,CLR,0.00,WeatherDisplay:10.37,2013-07-12 07:50:00,
2013-07-12 00:55:00,70.2,54.7,29.39,NNE,22,0.0,2.0,58,0.00,CLR,CLR,0.00,WeatherDisplay:10.37,2013-07-12 07:55:00,
2013-07-12 01:00:00,69.6,54.2,29.39,ESE,120,1.0,2.0,58,0.00,CLR,CLR,0.00,WeatherDisplay:10.37,2013-07-12 08:00:00,
2013-07-12 01:05:00,69.3,54.8,29.40,East,80,0.0,2.0,60,0.00,CLR,CLR,0.00,WeatherDisplay:10.37,2013-07-12 08:05:00,
2013-07-12 01:10:00,69.3,54.8,29.40,East,90,0.0,2.0,60,0.00,CLR,CLR,0.00,WeatherDisplay:10.37,2013-07-12 08:10:00,
2013-07-12 01:15:00,69.3,54.8,29.40,ESE,102,0.0,2.0,60,0.00,CLR,CLR,0.00,WeatherDisplay:10.37,2013-07-12 08:15:00,
2013-07-12 01:20:00,68.7,54.7,29.40,ESE,103,1.0,4.0,61,0.00,CLR,CLR,0.00,WeatherDisplay:10.37,2013-07-12 08:20:00,
2013-07-12 01:25:00,68.5,54.6,29.40,North,0,0.0,1.0,61,0.00,CLR,CLR,0.00,WeatherDisplay:10.37,2013-07-12 08:25:00,
2013-07-12 01:30:00,68.5,54.1,29.40,WNW,293,0.0,1.0,60,0.00,CLR,CLR,0.00,WeatherDisplay:10.37,2013-07-12 08:30:00,
2013-07-12 01:35:00,68.5,53.6,29.41,SE,135,0.0,2.0,59,0.00,CLR,CLR,0.00,WeatherDisplay:10.37,2013-07-12 08:35:00,
2013-07-12 01:40:00,68.5,52.2,29.40,NE,45,0.0,2.0,56,0.00,CLR,CLR,0.00,WeatherDisplay:10.37,2013-07-12 08:40:00,
2013-07-12 01:45:00,68.5,53.2,29.40,NNW,338,0.0,1.0,58,0.00,CLR,CLR,0.00,WeatherDisplay:10.37,2013-07-12 08:45:00,
2013-07-12 01:50:00,68.7,52.4,29.40,NNW,338,0.0,2.0,56,0.00,CLR,CLR,0.00,WeatherDisplay:10.37,2013-07-12 08:50:00,
2013-07-12 01:55:00,68.7,53.3,29.40,NE,45,0.0,1.0,58,0.00,CLR,CLR,0.00,WeatherDisplay:10.37,2013-07-12 08:55:00,
2013-07-12 02:00:00,68.9,53.5,29.40,NE,45,0.0,0.0,58,0.00,CLR,CLR,0.00,WeatherDisplay:10.37,2013-07-12 09:00:00,
2013-07-12 02:05:00,68.5,52.7,29.40,ENE,68,0.0,1.0,57,0.00,CLR,CLR,0.00,WeatherDisplay:10.37,2013-07-12 09:05:00,
2013-07-12 02:10:00,68.4,53.5,29.40,East,90,0.0,1.0,59,0.00,CLR,CLR,0.00,WeatherDisplay:10.37,2013-07-12 09:10:00,
2013-07-12 02:15:00,68.4,53.5,29.40,East,90,0.0,0.0,59,0.00,CLR,CLR,0.00,WeatherDisplay:10.37,2013-07-12 09:15:00,
2013-07-12 02:20:00,68.2,53.8,29.40,ESE,113,0.0,1.0,60,0.00,CLR,CLR,0.00,WeatherDisplay:10.37,2013-07-12 09:20:00,
2013-07-12 02:22:00,72.7,58.0,29.39,East,90,3.5,0.0,60,0.00,CLR,,0.00,WeatherDisplay:10.37,2013-07-12 09:22:00,
2013-07-12 02:25:00,68.0,53.6,29.40,SSW,202,0.0,2.0,60,0.00,CLR,CLR,0.00,WeatherDisplay:10.37,2013-07-12 09:25:00,
2013-07-12 02:30:00,67.6,53.3,29.41,WNW,292,0.0,1.0,60,0.00,CLR,CLR,0.00,WeatherDisplay:10.37,2013-07-12 09:30:00,
2013-07-12 02:35:00,67.5,53.5,29.40,NW,315,0.0,0.0,61,0.00,CLR,CLR,0.00,WeatherDisplay:10.37,2013-07-12 09:35:00,
2013-07-12 02:40:00,67.5,53.5,29.40,WNW,292,0.0,0.0,61,0.00,CLR,CLR,0.00,WeatherDisplay:10.37,2013-07-12 09:40:00,
2013-07-12 02:45:00,67.8,53.9,29.41,NNW,338,0.0,4.0,61,0.00,CLR,CLR,0.00,WeatherDisplay:10.37,2013-07-12 09:45:00,
2013-07-12 02:50:00,67.6,53.7,29.41,NNW,338,0.0,2.0,61,0.00,CLR,CLR,0.00,WeatherDisplay:10.37,2013-07-12 09:50:00,
2013-07-12 02:55:00,68.0,54.0,29.41,WNW,286,1.0,2.0,61,0.00,CLR,CLR,0.00,WeatherDisplay:10.37,2013-07-12 09:55:00,
2013-07-12 03:00:00,68.2,54.2,29.41,SW,215,0.0,0.0,61,0.00,CLR,CLR,0.00,WeatherDisplay:10.37,2013-07-12 10:00:00,
2013-07-12 03:05:00,68.7,54.3,29.40,SSW,210,1.0,2.0,60,0.00,CLR,CLR,0.00,WeatherDisplay:10.37,2013-07-12 10:05:00,
2013-07-12 03:10:00,68.9,54.9,29.41,WSW,247,1.0,3.0,61,0.00,CLR,CLR,0.00,WeatherDisplay:10.37,2013-07-12 10:10:00,
2013-07-12 03:15:00,69.3,54.8,29.41,NE,45,0.0,1.0,60,0.00,CLR,CLR,0.00,WeatherDisplay:10.37,2013-07-12 10:15:00,
2013-07-12 03:20:00,69.3,54.3,29.41,NNE,29,1.0,2.0,59,0.00,CLR,CLR,0.00,WeatherDisplay:10.37,2013-07-12 10:20:00,
2013-07-12 03:25:00,68.7,53.8,29.41,NW,315,1.0,2.0,59,0.00,CLR,CLR,0.00,WeatherDisplay:10.37,2013-07-12 10:25:00,
2013-07-12 03:30:00,68.9,54.0,29.41,East,90,1.0,2.0,59,0.00,CLR,CLR,0.00,WeatherDisplay:10.37,2013-07-12 10:30:00,
2013-07-12 03:35:00,69.1,54.1,29.41,West,270,1.0,2.0,59,0.00,CLR,CLR,0.00,WeatherDisplay:10.37,2013-07-12 10:35:00,
2013-07-12 03:40:00,68.9,53.5,29.41,West,270,0.0,0.0,58,0.00,CLR,CLR,0.00,WeatherDisplay:10.37,2013-07-12 10:40:00,
2013-07-12 03:45:00,68.7,53.3,29.41,NW,305,1.0,3.0,58,0.00,CLR,CLR,0.00,WeatherDisplay:10.37,2013-07-12 10:45:00,
2013-07-12 03:50:00,68.4,53.9,29.41,East,90,1.0,4.0,60,0.00,CLR,CLR,0.00,WeatherDisplay:10.37,2013-07-12 10:50:00,
2013-07-12 03:55:00,68.0,53.1,29.41,SE,135,1.0,2.0,59,0.00,CLR,CLR,0.00,WeatherDisplay:10.37,2013-07-12 10:55:00,
2013-07-12 03:56:00,72.7,58.0,29.39,East,90,3.5,0.0,60,0.00,CLR,,0.00,WeatherDisplay:10.37,2013-07-12 10:56:00,
2013-07-12 04:00:00,67.5,52.6,29.41,SE,135,0.0,1.0,59,0.00,CLR,CLR,0.00,WeatherDisplay:10.37,2013-07-12 11:00:00,
2013-07-12 04:05:00,67.5,53.1,29.41,SE,135,0.0,2.0,60,0.00,CLR,CLR,0.00,WeatherDisplay:10.37,2013-07-12 11:05:00,
2013-07-12 04:10:00,67.8,53.4,29.40,SE,135,0.0,2.0,60,0.00,CLR,CLR,0.00,WeatherDisplay:10.37,2013-07-12 11:10:00,
2013-07-12 04:15:00,67.6,52.8,29.40,East,90,0.0,2.0,59,0.00,CLR,CLR,0.00,WeatherDisplay:10.37,2013-07-12 11:15:00,
2013-07-12 04:20:00,67.5,53.1,29.41,ENE,61,1.0,2.0,60,0.00,CLR,CLR,0.00,WeatherDisplay:10.37,2013-07-12 11:20:00,
2013-07-12 04:25:00,67.5,53.1,29.41,ENE,61,0.0,2.0,60,0.00,CLR,CLR,0.00,WeatherDisplay:10.37,2013-07-12 11:25:00,
2013-07-12 04:30:00,67.3,52.9,29.41,ESE,113,0.0,0.0,60,0.00,CLR,CLR,0.00,WeatherDisplay:10.37,2013-07-12 11:30:00,
2013-07-12 04:35:00,67.5,54.0,29.41,ESE,113,0.0,1.0,62,0.00,CLR,CLR,0.00,WeatherDisplay:10.37,2013-07-12 11:35:00,
2013-07-12 04:40:00,67.3,53.8,29.40,NE,45,0.0,0.0,62,0.00,CLR,CLR,0.00,WeatherDisplay:10.37,2013-07-12 11:40:00,
2013-07-12 04:45:00,67.1,53.6,29.40,NNE,23,0.0,0.0,62,0.00,CLR,CLR,0.00,WeatherDisplay:10.37,2013-07-12 11:45:00,
2013-07-12 04:50:00,66.9,53.9,29.40,North,0,0.0,1.0,63,0.00,CLR,CLR,0.00,WeatherDisplay:10.37,2013-07-12 11:50:00,
2013-07-12 04:55:00,66.7,53.7,29.40,ENE,67,0.0,1.0,63,0.00,CLR,CLR,0.00,WeatherDisplay:10.37,2013-07-12 11:55:00,
2013-07-12 05:00:00,66.6,53.6,29.41,SE,135,1.0,2.0,63,0.00,CLR,CLR,0.00,WeatherDisplay:10.37,2013-07-12 12:00:00,
2013-07-12 05:05:00,66.4,53.0,29.40,SE,135,0.0,2.0,62,0.00,CLR,CLR,0.00,WeatherDisplay:10.37,2013-07-12 12:05:00,
2013-07-12 05:10:00,66.4,53.4,29.40,ESE,113,0.0,1.0,63,0.00,CLR,CLR,0.00,WeatherDisplay:10.37,2013-07-12 12:10:00,
2013-07-12 05:15:00,67.1,54.1,29.40,East,90,0.0,0.0,63,0.00,CLR,CLR,0.00,WeatherDisplay:10.37,2013-07-12 12:15:00,
2013-07-12 05:20:00,67.5,54.0,29.40,East,90,0.0,1.0,62,0.00,CLR,CLR,0.00,WeatherDisplay:10.37,2013-07-12 12:20:00,
2013-07-12 05:25:00,67.6,54.2,29.40,East,90,0.0,0.0,62,0.00,CLR,CLR,0.00,WeatherDisplay:10.37,2013-07-12 12:25:00,
2013-07-12 05:30:00,67.6,53.7,29.40,East,90,0.0,1.0,61,0.00,CLR,CLR,0.00,WeatherDisplay:10.37,2013-07-12 12:30:00,
2013-07-12 05:35:00,67.5,54.0,29.41,East,90,0.0,1.0,62,0.00,CLR,CLR,0.00,WeatherDisplay:10.37,2013-07-12 12:35:00,
2013-07-12 05:40:00,67.3,53.4,29.41,SE,135,0.0,0.0,61,0.00,CLR,CLR,0.00,WeatherDisplay:10.37,2013-07-12 12:40:00,
2013-07-12 05:45:00,67.3,53.4,29.41,South,180,0.0,1.0,61,0.00,CLR,CLR,0.00,WeatherDisplay:10.37,2013-07-12 12:45:00,
2013-07-12 05:50:00,67.1,53.2,29.40,SE,135,0.0,1.0,61,0.00,CLR,CLR,0.00,WeatherDisplay:10.37,2013-07-12 12:50:00,
2013-07-12 05:55:00,66.9,53.0,29.41,NNE,22,0.0,0.0,61,0.00,CLR,CLR,0.00,WeatherDisplay:10.37,2013-07-12 12:55:00,
2013-07-12 06:00:00,66.9,53.0,29.41,WNW,299,1.0,2.0,61,0.00,CLR,CLR,0.00,WeatherDisplay:10.37,2013-07-12 13:00:00,
2013-07-12 06:05:00,67.1,53.6,29.41,West,270,0.0,2.0,62,0.00,CLR,CLR,0.00,WeatherDisplay:10.37,2013-07-12 13:05:00,
2013-07-12 06:08:00,72.7,58.0,29.39,East,90,3.5,0.0,60,0.00,CLR,,0.00,WeatherDisplay:10.37,2013-07-12 13:08:00,
2013-07-12 06:10:00,67.1,53.2,29.41,West,270,1.0,2.0,61,0.00,CLR,CLR,0.00,WeatherDisplay:10.37,2013-07-12 13:10:00,
2013-07-12 06:15:00,67.1,53.2,29.41,West,270,1.0,2.0,61,0.00,CLR,CLR,0.00,WeatherDisplay:10.37,2013-07-12 13:15:00,
2013-07-12 06:20:00,67.1,53.2,29.41,West,270,0.0,1.0,61,0.00,CLR,CLR,0.00,WeatherDisplay:10.37,2013-07-12 13:20:00,
2013-07-12 06:25:00,67.1,52.7,29.41,WSW,244,1.0,4.0,60,0.00,CLR,CLR,0.00,WeatherDisplay:10.37,2013-07-12 13:25:00,
2013-07-12 06:30:00,67.1,52.7,29.41,SW,225,1.0,3.0,60,0.00,CLR,CLR,0.00,WeatherDisplay:10.37,2013-07-12 13:30:00,
2013-07-12 06:35:00,66.9,52.6,29.41,WSW,257,1.0,4.0,60,0.00,CLR,CLR,0.00,WeatherDisplay:10.37,2013-07-12 13:35:00,
2013-07-12 06:40:00,66.4,52.5,29.41,West,270,2.0,4.0,61,0.00,CLR,CLR,0.00,WeatherDisplay:10.37,2013-07-12 13:40:00,
2013-07-12 06:45:00,65.8,52.9,29.41,West,270,1.0,3.0,63,0.00,CLR,CLR,0.00,WeatherDisplay:10.37,2013-07-12 13:45:00,
2013-07-12 06:50:00,65.7,53.1,29.41,West,270,1.0,2.0,64,0.00,CLR,CLR,0.00,WeatherDisplay:10.37,2013-07-12 13:50:00,
2013-07-12 06:55:00,65.3,52.8,29.41,West,270,1.0,2.0,64,0.00,CLR,CLR,0.00,WeatherDisplay:10.37,2013-07-12 13:55:00,
2013-07-12 07:00:00,64.9,52.9,29.41,West,270,1.0,4.0,65,0.00,CLR,CLR,0.00,WeatherDisplay:10.37,2013-07-12 14:00:00,
2013-07-12 07:05:00,64.6,53.0,29.42,West,270,1.0,2.0,66,0.00,CLR,CLR,0.00,WeatherDisplay:10.37,2013-07-12 14:05:00,
2013-07-12 07:10:00,64.2,53.4,29.42,West,270,1.0,5.0,68,0.00,CLR,CLR,0.00,WeatherDisplay:10.37,2013-07-12 14:10:00,
2013-07-12 07:15:00,63.3,53.0,29.42,West,270,1.0,2.0,69,0.00,CLR,CLR,0.00,WeatherDisplay:10.37,2013-07-12 14:15:00,
2013-07-12 07:20:00,62.6,52.7,29.42,West,270,1.0,3.0,70,0.00,CLR,CLR,0.00,WeatherDisplay:10.37,2013-07-12 14:20:00,
2013-07-12 07:25:00,62.1,52.5,29.42,WSW,238,1.0,4.0,71,0.00,CLR,CLR,0.00,WeatherDisplay:10.37,2013-07-12 14:25:00,
2013-07-12 07:30:00,61.9,52.4,29.43,WSW,238,1.0,2.0,71,0.00,CLR,CLR,0.00,WeatherDisplay:10.37,2013-07-12 14:30:00,
2013-07-12 07:35:00,61.2,51.3,29.43,West,270,1.0,4.0,70,0.00,CLR,CLR,0.00,WeatherDisplay:10.37,2013-07-12 14:35:00,
2013-07-12 07:40:00,60.8,51.0,29.43,WSW,243,2.0,4.0,70,0.00,CLR,CLR,0.00,WeatherDisplay:10.37,2013-07-12 14:40:00,
2013-07-12 07:45:00,60.4,51.0,29.43,WSW,255,0.0,1.0,71,0.00,CLR,CLR,0.00,WeatherDisplay:10.37,2013-07-12 14:45:00,
2013-07-12 07:50:00,59.9,50.5,29.44,NW,315,0.0,0.0,71,0.00,CLR,CLR,0.00,WeatherDisplay:10.37,2013-07-12 14:50:00,
2013-07-12 07:55:00,59.7,50.7,29.44,WSW,247,0.0,1.0,72,0.00,CLR,CLR,0.00,WeatherDisplay:10.37,2013-07-12 14:55:00,
2013-07-12 08:00:00,59.5,50.5,29.44,WSW,241,1.0,2.0,72,0.00,CLR,CLR,0.00,WeatherDisplay:10.37,2013-07-12 15:00:00,
2013-07-12 08:05:00,59.2,50.5,29.44,West,270,1.0,2.0,73,0.00,CLR,CLR,0.00,WeatherDisplay:10.37,2013-07-12 15:05:00,
2013-07-12 08:10:00,58.6,50.0,29.44,West,270,0.0,0.0,73,0.00,CLR,CLR,0.00,WeatherDisplay:10.37,2013-07-12 15:10:00,
2013-07-12 08:15:00,58.3,49.7,29.44,West,270,0.0,0.0,73,0.00,CLR,CLR,0.00,WeatherDisplay:10.37,2013-07-12 15:15:00,
2013-07-12 08:20:00,57.7,49.5,29.44,West,270,0.0,1.0,74,0.00,CLR,CLR,0.00,WeatherDisplay:10.37,2013-07-12 15:20:00,
2013-07-12 08:25:00,57.4,49.5,29.45,West,270,0.0,1.0,75,0.00,CLR,CLR,0.00,WeatherDisplay:10.37,2013-07-12 15:25:00,
2013-07-12 08:30:00,57.4,49.2,29.45,West,270,0.0,2.0,74,0.00,CLR,CLR,0.00,WeatherDisplay:10.37,2013-07-12 15:30:00,
2013-07-12 08:35:00,57.2,49.0,29.45,West,270,0.0,0.0,74,0.00,CLR,CLR,0.00,WeatherDisplay:10.37,2013-07-12 15:35:00,
2013-07-12 08:40:00,56.8,48.6,29.45,West,270,0.0,0.0,74,0.00,CLR,CLR,0.00,WeatherDisplay:10.37,2013-07-12 15:40:00,
2013-07-12 08:45:00,56.3,48.1,29.46,West,270,0.0,0.0,74,0.00,CLR,CLR,0.00,WeatherDisplay:10.37,2013-07-12 15:45:00,
2013-07-12 08:50:00,55.9,48.1,29.46,West,270,0.0,0.0,75,0.00,CLR,CLR,0.00,WeatherDisplay:10.37,2013-07-12 15:50:00,
2013-07-12 08:55:00,55.6,48.1,29.45,West,270,1.0,2.0,76,0.00,CLR,CLR,0.00,WeatherDisplay:10.37,2013-07-12 15:55:00,
2013-07-12 09:00:00,55.4,48.0,29.46,West,270,0.0,0.0,76,0.00,CLR,CLR,0.00,WeatherDisplay:10.37,2013-07-12 16:00:00,
2013-07-12 09:05:00,55.0,48.0,29.46,West,270,0.0,0.0,77,0.00,CLR,CLR,0.00,WeatherDisplay:10.37,2013-07-12 16:05:00,
2013-07-12 09:10:00,54.7,47.6,29.46,West,270,0.0,0.0,77,0.00,CLR,CLR,0.00,WeatherDisplay:10.37,2013-07-12 16:10:00,
2013-07-12 09:15:00,54.5,47.4,29.46,West,270,0.0,0.0,77,0.00,CLR,CLR,0.00,WeatherDisplay:10.37,2013-07-12 16:15:00,
2013-07-12 09:20:00,54.1,47.4,29.46,West,270,0.0,0.0,78,0.00,CLR,CLR,0.00,WeatherDisplay:10.37,2013-07-12 16:20:00,
2013-07-12 09:25:00,54.0,47.3,29.47,West,270,0.0,0.0,78,0.00,CLR,CLR,0.00,WeatherDisplay:10.37,2013-07-12 16:25:00,
2013-07-12 09:30:00,53.6,46.9,29.46,West,270,0.0,0.0,78,0.00,CLR,CLR,0.00,WeatherDisplay:10.37,2013-07-12 16:30:00,
2013-07-12 09:35:00,53.4,46.7,29.46,West,270,0.0,0.0,78,0.00,CLR,CLR,0.00,WeatherDisplay:10.37,2013-07-12 16:35:00,
2013-07-12 09:40:00,53.1,46.4,29.47,West,270,0.0,0.0,78,0.00,CLR,CLR,0.00,WeatherDisplay:10.37,2013-07-12 16:40:00,
2013-07-12 09:45:00,52.9,46.5,29.47,West,270,0.0,0.0,79,0.00,CLR,CLR,0.00,WeatherDisplay:10.37,2013-07-12 16:45:00,
2013-07-12 09:50:00,52.9,46.5,29.47,West,270,0.0,0.0,79,0.00,CLR,CLR,0.00,WeatherDisplay:10.37,2013-07-12 16:50:00,
2013-07-12 09:55:00,52.7,46.4,29.47,West,270,0.0,0.0,79,0.00,CLR,CLR,0.00,WeatherDisplay:10.37,2013-07-12 16:55:00,
2013-07-12 10:00:00,52.5,46.2,29.47,West,270,0.0,0.0,79,0.00,CLR,CLR,0.00,WeatherDisplay:10.37,2013-07-12 17:00:00,
2013-07-12 10:05:00,52.5,46.2,29.47,West,270,0.0,0.0,79,0.00,CLR,CLR,0.00,WeatherDisplay:10.37,2013-07-12 17:05:00,
2013-07-12 10:10:00,52.3,46.0,29.47,West,270,0.0,0.0,79,0.00,CLR,CLR,0.00,WeatherDisplay:10.37,2013-07-12 17:10:00,
2013-07-12 10:15:00,52.2,45.8,29.47,West,270,0.0,0.0,79,0.00,CLR,CLR,0.00,WeatherDisplay:10.37,2013-07-12 17:15:00,
2013-07-12 10:20:00,52.2,45.8,29.47,West,270,0.0,0.0,79,0.00,CLR,CLR,0.00,WeatherDisplay:10.37,2013-07-12 17:20:00,
2013-07-12 10:25:00,52.0,45.7,29.47,West,270,0.0,0.0,79,0.00,CLR,CLR,0.00,WeatherDisplay:10.37,2013-07-12 17:25:00,
2013-07-12 10:30:00,51.8,45.5,29.47,West,270,0.0,0.0,79,0.00,CLR,CLR,0.00,WeatherDisplay:10.37,2013-07-12 17:30:00,
2013-07-12 10:35:00,51.8,45.5,29.47,West,270,0.0,1.0,79,0.00,CLR,CLR,0.00,WeatherDisplay:10.37,2013-07-12 17:35:00,
2013-07-12 10:40:00,51.8,45.5,29.48,West,270,0.0,0.0,79,0.00,CLR,CLR,0.00,WeatherDisplay:10.37,2013-07-12 17:40:00,
2013-07-12 10:45:00,51.8,45.5,29.48,West,270,0.0,0.0,79,0.00,CLR,CLR,0.00,WeatherDisplay:10.37,2013-07-12 17:45:00,
2013-07-12 10:50:00,51.8,45.2,29.47,West,270,0.0,0.0,78,0.00,CLR,CLR,0.00,WeatherDisplay:10.37,2013-07-12 17:50:00,
2013-07-12 10:55:00,51.8,45.2,29.48,West,270,0.0,0.0,78,0.00,CLR,CLR,0.00,WeatherDisplay:10.37,2013-07-12 17:55:00,
2013-07-12 11:00:00,51.8,45.2,29.48,West,270,0.0,0.0,78,0.00,CLR,CLR,0.00,WeatherDisplay:10.37,2013-07-12 18:00:00,
2013-07-12 11:05:00,51.8,45.2,29.48,West,270,0.0,0.0,78,0.00,CLR,CLR,0.00,WeatherDisplay:10.37,2013-07-12 18:05:00,
2013-07-12 11:10:00,51.8,45.2,29.48,West,270,0.0,1.0,78,0.00,CLR,CLR,0.00,WeatherDisplay:10.37,2013-07-12 18:10:00,
2013-07-12 11:15:00,51.8,45.2,29.48,West,270,0.0,1.0,78,0.00,CLR,CLR,0.00,WeatherDisplay:10.37,2013-07-12 18:15:00,
2013-07-12 11:20:00,51.8,45.2,29.48,West,270,0.0,0.0,78,0.00,CLR,CLR,0.00,WeatherDisplay:10.37,2013-07-12 18:20:00,
2013-07-12 11:25:00,51.8,45.2,29.48,West,270,0.0,1.0,78,0.00,CLR,CLR,0.00,WeatherDisplay:10.37,2013-07-12 18:25:00,
2013-07-12 11:30:00,52.0,45.7,29.48,West,270,0.0,0.0,79,0.00,CLR,CLR,0.00,WeatherDisplay:10.37,2013-07-12 18:30:00,
2013-07-12 11:35:00,52.0,45.7,29.48,West,270,0.0,0.0,79,0.00,CLR,CLR,0.00,WeatherDisplay:10.37,2013-07-12 18:35:00,
2013-07-12 11:40:00,51.8,45.5,29.49,West,270,0.0,0.0,79,0.00,CLR,CLR,0.00,WeatherDisplay:10.37,2013-07-12 18:40:00,
2013-07-12 11:45:00,51.6,45.3,29.49,West,270,0.0,0.0,79,0.00,CLR,CLR,0.00,WeatherDisplay:10.37,2013-07-12 18:45:00,
2013-07-12 11:50:00,51.6,45.3,29.49,West,270,0.0,0.0,79,0.00,CLR,CLR,0.00,WeatherDisplay:10.37,2013-07-12 18:50:00,
2013-07-12 11:55:00,51.4,45.5,29.49,West,270,0.0,0.0,80,0.00,CLR,CLR,0.00,WeatherDisplay:10.37,2013-07-12 18:55:00,
2013-07-12 12:00:00,51.4,45.5,29.49,West,270,0.0,0.0,80,0.00,CLR,CLR,0.00,WeatherDisplay:10.37,2013-07-12 19:00:00,
2013-07-12 12:05:00,51.4,45.8,29.49,West,270,0.0,1.0,81,0.00,CLR,CLR,0.00,WeatherDisplay:10.37,2013-07-12 19:05:00,
2013-07-12 12:10:00,51.4,45.8,29.48,West,270,0.0,0.0,81,0.00,CLR,CLR,0.00,WeatherDisplay:10.37,2013-07-12 19:10:00,
2013-07-12 12:15:00,51.6,46.3,29.49,WSW,247,0.0,2.0,82,0.00,CLR,CLR,0.00,WeatherDisplay:10.37,2013-07-12 19:15:00,
2013-07-12 12:20:00,51.8,46.5,29.49,SW,225,0.0,0.0,82,0.00,CLR,CLR,0.00,WeatherDisplay:10.37,2013-07-12 19:20:00,
2013-07-12 12:25:00,51.8,46.5,29.48,SW,236,0.0,1.0,82,0.00,CLR,CLR,0.00,WeatherDisplay:10.37,2013-07-12 19:25:00,
2013-07-12 12:30:00,51.6,46.3,29.49,WSW,248,0.0,0.0,82,0.00,CLR,CLR,0.00,WeatherDisplay:10.37,2013-07-12 19:30:00,
2013-07-12 12:35:00,51.4,46.1,29.48,WSW,248,0.0,0.0,82,0.00,CLR,CLR,0.00,WeatherDisplay:10.37,2013-07-12 19:35:00,
2013-07-12 12:40:00,51.3,46.0,29.49,WSW,248,0.0,0.0,82,0.00,CLR,CLR,0.00,WeatherDisplay:10.37,2013-07-12 19:40:00,
2013-07-12 12:45:00,51.1,45.8,29.49,WSW,248,0.0,0.0,82,0.00,CLR,CLR,0.00,WeatherDisplay:10.37,2013-07-12 19:45:00,
2013-07-12 12:50:00,50.9,45.6,29.49,WSW,248,0.0,0.0,82,0.00,CLR,CLR,0.00,WeatherDisplay:10.37,2013-07-12 19:50:00,
2013-07-12 12:55:00,50.7,45.7,29.49,WSW,248,0.0,0.0,83,0.00,CLR,CLR,0.00,WeatherDisplay:10.37,2013-07-12 19:55:00,
2013-07-12 13:00:00,50.5,45.6,29.49,WSW,248,0.0,0.0,83,0.00,CLR,CLR,0.00,WeatherDisplay:10.37,2013-07-12 20:00:00,
2013-07-12 13:05:00,50.2,45.2,29.49,WSW,248,0.0,0.0,83,0.00,CLR,CLR,0.00,WeatherDisplay:10.37,2013-07-12 20:05:00,
2013-07-12 13:10:00,50.0,45.4,29.49,WSW,248,0.0,0.0,84,0.00,CLR,CLR,0.00,WeatherDisplay:10.37,2013-07-12 20:10:00,
2013-07-12 13:15:00,49.8,45.2,29.50,SW,236,0.0,0.0,84,0.00,CLR,CLR,0.00,WeatherDisplay:10.37,2013-07-12 20:15:00,
2013-07-12 13:20:00,49.5,44.8,29.50,SW,225,0.0,0.0,84,0.00,CLR,CLR,0.00,WeatherDisplay:10.37,2013-07-12 20:20:00,
2013-07-12 13:25:00,49.3,45.0,29.50,SW,225,0.0,0.0,85,0.00,CLR,CLR,0.00,WeatherDisplay:10.37,2013-07-12 20:25:00,
2013-07-12 13:30:00,49.1,44.8,29.50,SSW,202,0.0,1.0,85,0.00,CLR,CLR,0.00,WeatherDisplay:10.37,2013-07-12 20:30:00,
2013-07-12 13:35:00,48.7,44.4,29.50,South,180,0.0,0.0,85,0.00,CLR,CLR,0.00,WeatherDisplay:10.37,2013-07-12 20:35:00,
2013-07-12 13:40:00,48.6,44.6,29.50,South,180,0.0,0.0,86,0.00,CLR,CLR,0.00,WeatherDisplay:10.37,2013-07-12 20:40:00,
2013-07-12 13:45:00,48.4,44.4,29.49,South,180,0.0,0.0,86,0.00,CLR,CLR,0.00,WeatherDisplay:10.37,2013-07-12 20:45:00,
2013-07-12 13:50:00,48.2,44.2,29.50,South,180,0.0,0.0,86,0.00,CLR,CLR,0.00,WeatherDisplay:10.37,2013-07-12 20:50:00,
2013-07-12 13:55:00,48.0,44.3,29.50,South,180,0.0,0.0,87,0.00,CLR,CLR,0.00,WeatherDisplay:10.37,2013-07-12 20:55:00,
2013-07-12 14:00:00,47.8,44.2,29.50,South,180,0.0,0.0,87,0.00,CLR,CLR,0.00,WeatherDisplay:10.37,2013-07-12 21:00:00,
2013-07-12 14:05:00,47.7,44.3,29.50,ESE,113,0.0,0.0,88,0.00,CLR,CLR,0.00,WeatherDisplay:10.37,2013-07-12 21:05:00,
2013-07-12 14:10:00,47.7,44.6,29.50,NE,45,0.0,1.0,89,0.00,CLR,CLR,0.00,WeatherDisplay:10.37,2013-07-12 21:10:00,
2013-07-12 14:15:00,47.7,44.6,29.50,NE,45,0.0,0.0,89,0.00,CLR,CLR,0.00,WeatherDisplay:10.37,2013-07-12 21:15:00,
2013-07-12 14:20:00,47.7,44.6,29.50,ENE,57,0.0,1.0,89,0.00,CLR,CLR,0.00,WeatherDisplay:10.37,2013-07-12 21:20:00,
2013-07-12 14:25:00,47.8,44.8,29.50,East,79,0.0,0.0,89,0.00,CLR,CLR,0.00,WeatherDisplay:10.37,2013-07-12 21:25:00,
2013-07-12 14:30:00,47.8,44.8,29.50,East,90,0.0,0.0,89,0.00,CLR,CLR,0.00,WeatherDisplay:10.37,2013-07-12 21:30:00,
2013-07-12 14:35:00,47.8,44.8,29.51,East,90,0.0,0.0,89,0.00,CLR,CLR,0.00,WeatherDisplay:10.37,2013-07-12 21:35:00,
2013-07-12 14:40:00,47.8,44.8,29.50,East,90,0.0,0.0,89,0.00,CLR,CLR,0.00,WeatherDisplay:10.37,2013-07-12 21:40:00,
2013-07-12 14:45:00,47.7,44.6,29.51,East,90,0.0,0.0,89,0.00,CLR,CLR,0.00,WeatherDisplay:10.37,2013-07-12 21:45:00,
2013-07-12 14:50:00,47.7,44.6,29.51,East,90,0.0,0.0,89,0.00,CLR,CLR,0.00,WeatherDisplay:10.37,2013-07-12 21:50:00,
2013-07-12 14:55:00,47.5,44.7,29.51,East,90,0.0,0.0,90,0.00,CLR,CLR,0.00,WeatherDisplay:10.37,2013-07-12 21:55:00,
2013-07-12 15:00:00,47.5,44.7,29.51,East,90,0.0,0.0,90,0.00,CLR,CLR,0.00,WeatherDisplay:10.37,2013-07-12 22:00:00,
2013-07-12 15:05:00,47.3,44.5,29.51,East,90,0.0,0.0,90,0.00,CLR,CLR,0.00,WeatherDisplay:10.37,2013-07-12 22:05:00,
2013-07-12 15:10:00,47.1,44.3,29.51,East,90,0.0,0.0,90,0.00,CLR,CLR,0.00,WeatherDisplay:10.37,2013-07-12 22:10:00,
2013-07-12 15:15:00,46.9,44.2,29.51,East,90,0.0,0.0,90,0.00,CLR,CLR,0.00,WeatherDisplay:10.37,2013-07-12 22:15:00,
2013-07-12 15:20:00,46.8,44.0,29.51,East,90,0.0,0.0,90,0.00,CLR,CLR,0.00,WeatherDisplay:10.37,2013-07-12 22:20:00,
2013-07-12 15:25:00,46.8,44.0,29.51,East,90,0.0,0.0,90,0.00,CLR,CLR,0.00,WeatherDisplay:10.37,2013-07-12 22:25:00,
2013-07-12 15:30:00,46.6,43.8,29.51,East,90,0.0,0.0,90,0.00,CLR,CLR,0.00,WeatherDisplay:10.37,2013-07-12 22:30:00,
2013-07-12 15:35:00,46.6,43.8,29.51,East,90,0.0,0.0,90,0.00,CLR,CLR,0.00,WeatherDisplay:10.37,2013-07-12 22:35:00,
2013-07-12 15:40:00,46.4,43.6,29.51,East,90,0.0,1.0,90,0.00,CLR,CLR,0.00,WeatherDisplay:10.37,2013-07-12 22:40:00,
2013-07-12 15:45:00,46.2,43.7,29.51,East,90,0.0,0.0,91,0.00,CLR,CLR,0.00,WeatherDisplay:10.37,2013-07-12 22:45:00,
2013-07-12 15:50:00,46.2,43.7,29.51,East,90,0.0,0.0,91,0.00,CLR,CLR,0.00,WeatherDisplay:10.37,2013-07-12 22:50:00,
2013-07-12 15:55:00,46.0,43.6,29.51,ENE,68,0.0,1.0,91,0.00,CLR,CLR,0.00,WeatherDisplay:10.37,2013-07-12 22:55:00,
2013-07-12 16:00:00,46.0,43.6,29.51,NE,45,0.0,1.0,91,0.00,CLR,CLR,0.00,WeatherDisplay:10.37,2013-07-12 23:00:00,
2013-07-12 16:05:00,46.0,43.6,29.52,NE,45,0.0,0.0,91,0.00,CLR,CLR,0.00,WeatherDisplay:10.37,2013-07-12 23:05:00,
2013-07-12 16:10:00,46.0,43.6,29.52,NE,45,0.0,0.0,91,0.00,CLR,CLR,0.00,WeatherDisplay:10.37,2013-07-12 23:10:00,
2013-07-12 16:15:00,46.0,43.8,29.52,NE,45,0.0,1.0,92,0.00,CLR,CLR,0.00,WeatherDisplay:10.37,2013-07-12 23:15:00,
2013-07-12 16:20:00,46.2,44.0,29.52,NE,45,0.0,0.0,92,0.00,CLR,CLR,0.00,WeatherDisplay:10.37,2013-07-12 23:20:00,
2013-07-12 16:25:00,46.2,44.0,29.53,NE,45,0.0,0.0,92,0.00,CLR,CLR,0.00,WeatherDisplay:10.37,2013-07-12 23:25:00,
2013-07-12 16:30:00,46.4,44.2,29.53,NE,45,0.0,0.0,92,0.00,CLR,CLR,0.00,WeatherDisplay:10.37,2013-07-12 23:30:00,
2013-07-12 16:35:00,46.6,44.4,29.53,NE,45,0.0,0.0,92,0.00,CLR,CLR,0.00,WeatherDisplay:10.37,2013-07-12 23:35:00,
2013-07-12 16:40:00,46.6,44.4,29.53,NE,45,0.0,0.0,92,0.00,CLR,CLR,0.00,WeatherDisplay:10.37,2013-07-12 23:40:00,
2013-07-12 16:45:00,46.8,44.6,29.53,NE,45,0.0,0.0,92,0.00,CLR,CLR,0.00,WeatherDisplay:10.37,2013-07-12 23:45:00,
2013-07-12 16:50:00,46.9,44.7,29.53,NE,45,0.0,0.0,92,0.00,CLR,CLR,0.00,WeatherDisplay:10.37,2013-07-12 23:50:00,
2013-07-12 16:55:00,47.1,45.2,29.53,NE,45,0.0,0.0,93,0.00,CLR,CLR,0.00,WeatherDisplay:10.37,2013-07-12 23:55:00,
2013-07-12 17:00:00,47.3,45.4,29.53,NE,45,0.0,0.0,93,0.00,CLR,CLR,0.00,WeatherDisplay:10.37,2013-07-13 00:00:00,
2013-07-12 17:05:00,47.7,45.7,29.53,NE,45,0.0,0.0,93,0.00,CLR,CLR,0.00,WeatherDisplay:10.37,2013-07-13 00:05:00,
2013-07-12 17:10:00,47.8,45.9,29.53,NE,45,0.0,0.0,93,0.00,CLR,CLR,0.00,WeatherDisplay:10.37,2013-07-13 00:10:00,
2013-07-12 17:15:00,48.2,46.3,29.53,SE,135,0.0,1.0,93,0.00,CLR,CLR,0.00,WeatherDisplay:10.37,2013-07-13 00:15:00,
2013-07-12 17:20:00,48.4,46.4,29.54,SW,225,0.0,0.0,93,0.00,CLR,CLR,0.00,WeatherDisplay:10.37,2013-07-13 00:20:00,
2013-07-12 17:25:00,48.7,46.8,29.54,SW,225,0.0,0.0,93,0.00,CLR,CLR,0.00,WeatherDisplay:10.37,2013-07-13 00:25:00,
2013-07-12 17:30:00,49.1,47.2,29.55,SW,225,0.0,0.0,93,0.00,CLR,CLR,0.00,WeatherDisplay:10.37,2013-07-13 00:30:00,
2013-07-12 17:35:00,49.5,47.5,29.54,SW,225,0.0,0.0,93,0.00,CLR,CLR,0.00,WeatherDisplay:10.37,2013-07-13 00:35:00,
2013-07-12 17:40:00,50.0,47.8,29.55,SW,225,0.0,0.0,92,0.00,CLR,CLR,0.00,WeatherDisplay:10.37,2013-07-13 00:40:00,
2013-07-12 17:45:00,50.7,48.5,29.55,SW,225,0.0,0.0,92,0.00,CLR,CLR,0.00,WeatherDisplay:10.37,2013-07-13 00:45:00,
2013-07-12 17:50:00,51.3,49.0,29.55,SW,225,0.0,1.0,92,0.00,CLR,CLR,0.00,WeatherDisplay:10.37,2013-07-13 00:50:00,
2013-07-12 17:55:00,51.6,49.4,29.55,SW,225,0.0,1.0,92,0.00,CLR,CLR,0.00,WeatherDisplay:10.37,2013-07-13 00:55:00,
2013-07-12 18:00:00,52.0,49.4,29.55,West,270,0.0,1.0,91,0.00,CLR,CLR,0.00,WeatherDisplay:10.37,2013-07-13 01:00:00,
2013-07-12 18:05:00,52.7,49.8,29.55,WNW,292,0.0,1.0,90,0.00,CLR,CLR,0.00,WeatherDisplay:10.37,2013-07-13 01:05:00,
2013-07-12 18:10:00,52.9,50.0,29.55,West,270,0.0,1.0,90,0.00,CLR,CLR,0.00,WeatherDisplay:10.37,2013-07-13 01:10:00,
2013-07-12 18:15:00,53.4,50.0,29.54,West,270,0.0,0.0,88,0.00,CLR,CLR,0.00,WeatherDisplay:10.37,2013-07-13 01:15:00,
2013-07-12 18:20:00,54.0,50.2,29.55,West,270,0.0,0.0,87,0.00,CLR,CLR,0.00,WeatherDisplay:10.37,2013-07-13 01:20:00,
2013-07-12 18:25:00,54.3,50.2,29.54,NNW,338,0.0,1.0,86,0.00,CLR,CLR,0.00,WeatherDisplay:10.37,2013-07-13 01:25:00,
2013-07-12 18:30:00,54.9,50.4,29.55,NNW,338,0.0,1.0,85,0.00,CLR,CLR,0.00,WeatherDisplay:10.37,2013-07-13 01:30:00,
2013-07-12 18:35:00,55.6,50.8,29.55,East,90,0.0,1.0,84,0.00,CLR,CLR,0.00,WeatherDisplay:10.37,2013-07-13 01:35:00,
2013-07-12 18:40:00,56.7,51.2,29.55,East,90,0.0,2.0,82,0.00,CLR,CLR,0.00,WeatherDisplay:10.37,2013-07-13 01:40:00,
2013-07-12 18:45:00,59.0,52.5,29.55,WSW,247,0.0,0.0,79,0.00,CLR,CLR,0.00,WeatherDisplay:10.37,2013-07-13 01:45:00,
2013-07-12 18:50:00,61.3,53.3,29.56,SW,225,0.0,2.0,75,0.00,CLR,CLR,0.00,WeatherDisplay:10.37,2013-07-13 01:50:00,
2013-07-12 18:55:00,62.8,52.5,29.56,SW,233,1.0,2.0,69,0.00,CLR,CLR,0.00,WeatherDisplay:10.37,2013-07-13 01:55:00,
2013-07-12 19:00:00,64.0,53.7,29.56,West,262,0.0,1.0,69,0.00,CLR,CLR,0.00,WeatherDisplay:10.37,2013-07-13 02:00:00,
2013-07-12 19:05:00,66.0,52.6,29.55,WSW,254,1.0,2.0,62,0.00,CLR,CLR,0.00,WeatherDisplay:10.37,2013-07-13 02:05:00,
2013-07-12 19:10:00,65.8,51.6,29.55,WSW,247,1.0,2.0,60,0.00,CLR,CLR,0.00,WeatherDisplay:10.37,2013-07-13 02:10:00,
2013-07-12 19:15:00,65.8,52.0,29.56,WSW,241,0.0,1.0,61,0.00,CLR,CLR,0.00,WeatherDisplay:10.37,2013-07-13 02:15:00,
2013-07-12 19:20:00,66.6,51.8,29.55,WSW,241,1.0,2.0,59,0.00,CLR,CLR,0.00,WeatherDisplay:10.37,2013-07-13 02:20:00,
2013-07-12 19:25:00,66.6,52.2,29.56,West,270,0.0,2.0,60,0.00,CLR,CLR,0.00,WeatherDisplay:10.37,2013-07-13 02:25:00,
2013-07-12 19:30:00,65.8,51.1,29.55,West,270,1.0,3.0,59,0.00,CLR,CLR,0.00,WeatherDisplay:10.37,2013-07-13 02:30:00,
2013-07-12 19:35:00,66.4,52.1,29.56,WSW,257,1.0,2.0,60,0.00,CLR,CLR,0.00,WeatherDisplay:10.37,2013-07-13 02:35:00,
2013-07-12 19:40:00,67.5,52.2,29.56,SW,225,1.0,2.0,58,0.00,CLR,CLR,0.00,WeatherDisplay:10.37,2013-07-13 02:40:00,
2013-07-12 19:45:00,68.5,53.6,29.55,NW,325,0.0,1.0,59,0.00,CLR,CLR,0.00,WeatherDisplay:10.37,2013-07-13 02:45:00,
2013-07-12 19:50:00,70.3,53.9,29.56,North,0,0.0,1.0,56,0.00,CLR,CLR,0.00,WeatherDisplay:10.37,2013-07-13 02:50:00,
2013-07-12 19:55:00,71.6,55.1,29.56,North,0,0.0,1.0,56,0.00,CLR,CLR,0.00,WeatherDisplay:10.37,2013-07-13 02:55:00,
2013-07-12 20:00:00,71.1,52.0,29.55,NW,315,0.0,2.0,51,0.00,CLR,CLR,0.00,WeatherDisplay:10.37,2013-07-13 03:00:00,
2013-07-12 20:05:00,71.6,53.0,29.56,WNW,292,0.0,2.0,52,0.00,CLR,CLR,0.00,WeatherDisplay:10.37,2013-07-13 03:05:00,
2013-07-12 20:10:00,72.7,54.0,29.56,NNE,22,0.0,1.0,52,0.00,CLR,CLR,0.00,WeatherDisplay:10.37,2013-07-13 03:10:00,
2013-07-12 20:15:00,73.6,54.3,29.55,NNE,22,0.0,1.0,51,0.00,CLR,CLR,0.00,WeatherDisplay:10.37,2013-07-13 03:15:00,
2013-07-12 20:20:00,72.3,52.1,29.55,West,270,0.0,1.0,49,0.00,CLR,CLR,0.00,WeatherDisplay:10.37,2013-07-13 03:20:00,
2013-07-12 20:25:00,73.8,54.0,29.55,West,270,0.0,1.0,50,0.00,CLR,CLR,0.00,WeatherDisplay:10.37,2013-07-13 03:25:00,
2013-07-12 20:30:00,73.2,51.8,29.55,WNW,285,2.0,4.0,47,0.00,CLR,CLR,0.00,WeatherDisplay:10.37,2013-07-13 03:30:00,
2013-07-12 20:35:00,71.2,52.2,29.55,West,270,1.0,2.0,51,0.00,CLR,CLR,0.00,WeatherDisplay:10.37,2013-07-13 03:35:00,
2013-07-12 20:40:00,71.2,53.2,29.55,West,270,0.0,1.0,53,0.00,CLR,CLR,0.00,WeatherDisplay:10.37,2013-07-13 03:40:00,
2013-07-12 20:45:00,72.3,54.2,29.55,WSW,254,1.0,2.0,53,0.00,CLR,CLR,0.00,WeatherDisplay:10.37,2013-07-13 03:45:00,
2013-07-12 20:50:00,72.7,53.0,29.55,SSE,158,1.0,2.0,50,0.00,CLR,CLR,0.00,WeatherDisplay:10.37,2013-07-13 03:50:00,
2013-07-12 20:55:00,73.6,54.3,29.55,East,90,0.0,2.0,51,0.00,CLR,CLR,0.00,WeatherDisplay:10.37,2013-07-13 03:55:00,
2013-07-12 21:00:00,74.1,53.7,29.55,SE,125,1.0,2.0,49,0.00,CLR,CLR,0.00,WeatherDisplay:10.37,2013-07-13 04:00:00,
2013-07-12 21:05:00,74.1,53.2,29.54,WSW,247,1.0,2.0,48,0.00,CLR,CLR,0.00,WeatherDisplay:10.37,2013-07-13 04:05:00,
2013-07-12 21:10:00,73.4,52.5,29.55,West,270,1.0,2.0,48,0.00,CLR,CLR,0.00,WeatherDisplay:10.37,2013-07-13 04:10:00,
2013-07-12 21:15:00,73.2,54.0,29.54,WSW,241,0.0,2.0,51,0.00,CLR,CLR,0.00,WeatherDisplay:10.37,2013-07-13 04:15:00,
2013-07-12 21:20:00,73.0,53.3,29.54,SW,225,1.0,2.0,50,0.00,CLR,CLR,0.00,WeatherDisplay:10.37,2013-07-13 04:20:00,
2013-07-12 21:25:00,73.2,53.5,29.55,WSW,247,1.0,2.0,50,0.00,CLR,CLR,0.00,WeatherDisplay:10.37,2013-07-13 04:25:00,
2013-07-12 21:30:00,73.4,53.6,29.55,West,270,1.0,2.0,50,0.00,CLR,CLR,0.00,WeatherDisplay:10.37,2013-07-13 04:30:00,
2013-07-12 21:35:00,73.8,53.4,29.54,WSW,238,1.0,2.0,49,0.00,CLR,CLR,0.00,WeatherDisplay:10.37,2013-07-13 04:35:00,
2013-07-12 21:40:00,73.6,52.7,29.54,WSW,247,1.0,3.0,48,0.00,CLR,CLR,0.00,WeatherDisplay:10.37,2013-07-13 04:40:00,
2013-07-12 21:45:00,72.7,58.0,29.39,East,90,3.5,0.0,60,0.00,CLR,,0.00,WeatherDisplay:10.37,2013-07-13 04:45:00,
2013-07-12 21:50:00,73.6,52.1,29.54,West,270,1.0,2.0,47,0.00,CLR,CLR,0.00,WeatherDisplay:10.37,2013-07-13 04:50:00,
2013-07-12 21:55:00,73.2,51.8,29.54,WSW,247,1.0,2.0,47,0.00,CLR,CLR,0.00,WeatherDisplay:10.37,2013-07-13 04:55:00,
2013-07-12 22:00:00,73.2,53.5,29.53,WSW,257,1.0,3.0,50,0.00,CLR,CLR,0.00,WeatherDisplay:10.37,2013-07-13 05:00:00,
2013-07-12 22:05:00,73.6,53.2,29.54,West,259,1.0,2.0,49,0.00,CLR,CLR,0.00,WeatherDisplay:10.37,2013-07-13 05:05:00,
2013-07-12 22:10:00,74.5,54.1,29.53,WSW,255,1.0,3.0,49,0.00,CLR,CLR,0.00,WeatherDisplay:10.37,2013-07-13 05:10:00,
2013-07-12 22:15:00,74.5,52.3,29.53,West,270,2.0,4.0,46,0.00,CLR,CLR,0.00,WeatherDisplay:10.37,2013-07-13 05:15:00,
2013-07-12 22:20:00,73.8,52.3,29.53,WNW,288,1.0,3.0,47,0.00,CLR,CLR,0.00,WeatherDisplay:10.37,2013-07-13 05:20:00,
2013-07-12 22:25:00,73.6,52.7,29.53,WNW,288,2.0,4.0,48,0.00,CLR,CLR,0.00,WeatherDisplay:10.37,2013-07-13 05:25:00,
2013-07-12 22:30:00,73.9,53.0,29.54,West,270,3.0,7.0,48,0.00,CLR,CLR,0.00,WeatherDisplay:10.37,2013-07-13 05:30:00,
2013-07-12 22:35:00,73.8,53.4,29.54,West,270,1.0,2.0,49,0.00,CLR,CLR,0.00,WeatherDisplay:10.37,2013-07-13 05:35:00,
2013-07-12 22:40:00,73.9,53.0,29.53,WSW,247,1.0,3.0,48,0.00,CLR,CLR,0.00,WeatherDisplay:10.37,2013-07-13 05:40:00,
2013-07-12 22:45:00,73.0,52.7,29.53,West,263,3.0,4.0,49,0.00,CLR,CLR,0.00,WeatherDisplay:10.37,2013-07-13 05:45:00,
2013-07-12 22:50:00,72.9,53.1,29.53,WSW,255,1.0,3.0,50,0.00,CLR,CLR,0.00,WeatherDisplay:10.37,2013-07-13 05:50:00,
2013-07-12 22:55:00,72.9,53.1,29.53,WSW,257,3.0,5.0,50,0.00,CLR,CLR,0.00,WeatherDisplay:10.37,2013-07-13 05:55:00,
2013-07-12 23:00:00,72.7,53.5,29.53,WSW,254,2.0,4.0,51,0.00,CLR,CLR,0.00,WeatherDisplay:10.37,2013-07-13 06:00:00,
2013-07-12 23:05:00,73.2,54.0,29.53,WSW,243,1.0,3.0,51,0.00,CLR,CLR,0.00,WeatherDisplay:10.37,2013-07-13 06:05:00,
2013-07-12 23:10:00,73.6,52.7,29.53,West,270,3.0,5.0,48,0.00,CLR,CLR,0.00,WeatherDisplay:10.37,2013-07-13 06:10:00,
2013-07-12 23:15:00,73.2,52.9,29.53,WNW,292,3.0,4.0,49,0.00,CLR,CLR,0.00,WeatherDisplay:10.37,2013-07-13 06:15:00,
2013-07-12 23:20:00,73.4,53.6,29.53,WNW,296,2.0,4.0,50,0.00,CLR,CLR,0.00,WeatherDisplay:10.37,2013-07-13 06:20:00,
2013-07-12 23:25:00,73.2,53.5,29.53,West,270,1.0,4.0,50,0.00,CLR,CLR,0.00,WeatherDisplay:10.37,2013-07-13 06:25:00,
2013-07-12 23:30:00,73.9,53.6,29.52,West,270,1.0,3.0,49,0.00,CLR,CLR,0.00,WeatherDisplay:10.37,2013-07-13 06:30:00,
2013-07-12 23:35:00,74.3,53.3,29.53,WSW,243,2.0,4.0,48,0.00,CLR,CLR,0.00,WeatherDisplay:10.37,2013-07-13 06:35:00,
2013-07-12 23:40:00,73.9,54.1,29.53,WSW,243,1.0,3.0,50,0.00,CLR,CLR,0.00,WeatherDisplay:10.37,2013-07-13 06:40:00,
2013-07-12 23:45:00,74.5,54.6,29.53,West,270,2.0,4.0,50,0.00,CLR,CLR,0.00,WeatherDisplay:10.37,2013-07-13 06:45:00,
2013-07-12 23:50:00,74.1,53.2,29.52,West,270,2.0,4.0,48,0.00,CLR,CLR,0.00,WeatherDisplay:10.37,2013-07-13 06:50:00,
2013-07-12 23:55:00,73.8,52.8,29.52,West,270,2.0,4.0,48,0.00,CLR,CLR,0.00,WeatherDisplay:10.37,2013-07-13 06:55:00,